Total_Precipitation_Accumulation
0.93 1.08 1.52 1.96 2.32 2.76 3.02 2.96 2.72 2.75 2.85 2.92 2.70 2.86 3.14 3.47 3.71 3.64 3.54 3.51 3.45 3.39 3.38 3.38 3.34 3.23 3.16 3.02 2.85 2.67 2.57 2.41 2.19 2.12 1.88 1.61 1.42 1.31 1.26 1.29 1.34 1.29 1.24
0.95 1.17 1.56 1.85 2.26 2.61 2.74 2.98 3.03 2.99 2.84 3.15 3.38 3.60 3.91 4.07 4.34 4.59 4.65 4.52 4.29 4.05 3.86 3.78 3.57 3.26 3.08 2.96 2.78 2.61 2.48 2.27 2.10 2.05 2.00 1.67 1.44 1.19 1.03 1.06 1.07 1.11 1.16
1.18 1.37 1.59 1.76 2.03 2.41 2.67 2.95 3.18 3.19 3.10 3.54 4.11 4.54 4.80 4.81 4.87 4.93 4.99 4.93 4.51 4.15 3.87 3.57 3.38 3.16 2.98 2.84 2.76 2.61 2.48 2.29 2.11 1.97 2.04 1.92 1.68 1.34 1.17 1.05 1.01 1.02 1.06
1.08 1.25 1.46 1.81 1.89 2.17 2.43 2.66 3.00 3.36 3.66 4.08 4.61 5.16 5.44 5.58 5.49 5.18 4.93 4.61 4.20 3.82 3.38 3.14 3.13 2.97 2.76 2.58 2.40 2.24 2.18 2.13 2.04 1.94 1.80 1.74 1.67 1.54 1.38 1.24 1.20 1.14 1.10
0.96 1.05 1.19 1.45 1.69 1.91 2.15 2.46 2.80 3.19 3.82 4.62 5.19 5.58 5.88 5.84 5.43 4.95 4.39 3.94 3.59 3.29 3.01 2.79 2.79 2.70 2.45 2.20 1.95 1.78 1.71 1.72 1.77 1.75 1.69 1.61 1.54 1.39 1.28 1.26 1.21 1.19 1.15
1.02 1.01 1.04 1.23 1.43 1.60 1.86 2.21 2.63 2.96 3.51 4.24 4.88 5.19 5.40 5.34 4.98 4.35 3.82 3.43 3.05 2.74 2.48 2.22 2.08 1.95 1.78 1.66 1.55 1.43 1.39 1.37 1.44 1.49 1.45 1.44 1.42 1.38 1.34 1.27 1.18 1.18 1.26
1.10 1.04 0.98 1.05 1.20 1.34 1.57 1.80 2.17 2.65 3.03 3.41 3.96 4.14 4.18 4.01 3.64 3.36 3.14 2.76 2.38 2.08 1.84 1.65 1.52 1.44 1.35 1.30 1.29 1.27 1.24 1.16 1.14 1.16 1.20 1.21 1.16 1.17 1.24 1.32 1.34 1.27 1.25
1.02 0.98 0.92 0.97 1.12 1.25 1.46 1.62 1.84 2.22 2.53 2.65 2.83 2.84 2.76 2.69 2.56 2.36 2.13 1.89 1.65 1.51 1.39 1.23 1.14 1.12 1.14 1.11 1.09 1.05 1.00 0.94 0.86 0.84 0.88 0.93 0.94 1.02 1.17 1.26 1.38 1.45 1.34
0.99 0.97 0.91 0.94 1.07 1.17 1.33 1.40 1.41 1.55 1.66 1.73 1.81 1.89 1.88 1.77 1.75 1.68 1.50 1.36 1.20 1.07 0.99 0.90 0.87 0.84 0.80 0.75 0.72 0.71 0.73 0.75 0.75 0.72 0.72 0.75 0.78 0.87 1.00 1.08 1.20 1.34 1.35
1.00 0.99 0.96 0.95 0.94 0.96 1.04 1.14 1.16 1.16 1.17 1.20 1.18 1.27 1.27 1.19 1.11 1.03 0.96 0.87 0.77 0.67 0.63 0.59 0.58 0.59 0.61 0.58 0.56 0.57 0.61 0.63 0.64 0.67 0.65 0.64 0.64 0.71 0.79 0.87 0.95 1.07 1.19
1.10 1.04 0.99 0.93 0.85 0.82 0.82 0.90 0.94 0.97 1.01 1.02 0.99 0.98 0.95 0.87 0.80 0.76 0.70 0.61 0.54 0.51 0.49 0.48 0.47 0.48 0.51 0.55 0.58 0.61 0.62 0.68 0.66 0.65 0.63 0.60 0.59 0.62 0.65 0.72 0.79 0.89 0.97
1.11 1.02 0.95 0.91 0.82 0.76 0.71 0.73 0.76 0.73 0.78 0.82 0.87 0.87 0.80 0.74 0.70 0.64 0.59 0.55 0.49 0.47 0.48 0.48 0.46 0.43 0.42 0.45 0.51 0.56 0.59 0.66 0.65 0.64 0.63 0.58 0.57 0.60 0.61 0.64 0.68 0.78 0.90
1.25 1.11 0.95 0.86 0.82 0.77 0.74 0.72 0.69 0.64 0.65 0.61 0.60 0.64 0.63 0.60 0.57 0.50 0.46 0.44 0.43 0.43 0.41 0.40 0.39 0.38 0.38 0.38 0.38 0.42 0.46 0.52 0.57 0.59 0.65 0.64 0.62 0.59 0.60 0.64 0.67 0.77 0.88
1.25 1.10 0.98 0.90 0.82 0.78 0.77 0.75 0.69 0.60 0.58 0.53 0.49 0.52 0.52 0.50 0.49 0.46 0.42 0.38 0.37 0.37 0.34 0.30 0.28 0.29 0.29 0.28 0.27 0.27 0.30 0.36 0.40 0.45 0.58 0.63 0.63 0.61 0.65 0.70 0.72 0.78 0.88
1.26 1.20 1.09 0.97 0.82 0.72 0.70 0.70 0.68 0.61 0.55 0.54 0.52 0.52 0.48 0.46 0.46 0.47 0.43 0.39 0.36 0.33 0.31 0.28 0.24 0.21 0.21 0.22 0.22 0.22 0.22 0.30 0.33 0.36 0.45 0.53 0.57 0.58 0.59 0.62 0.68 0.78 0.90
1.51 1.45 1.28 1.10 0.95 0.84 0.78 0.75 0.72 0.61 0.52 0.52 0.56 0.57 0.53 0.53 0.52 0.50 0.49 0.45 0.40 0.36 0.30 0.26 0.24 0.20 0.18 0.21 0.21 0.21 0.25 0.31 0.36 0.41 0.44 0.45 0.48 0.47 0.44 0.49 0.58 0.70 0.84
1.56 1.42 1.30 1.18 1.07 1.00 0.91 0.85 0.79 0.67 0.60 0.58 0.58 0.59 0.56 0.56 0.53 0.48 0.49 0.47 0.41 0.35 0.31 0.26 0.25 0.23 0.17 0.15 0.15 0.18 0.27 0.37 0.43 0.46 0.46 0.40 0.41 0.48 0.49 0.48 0.52 0.62 0.71
1.74 1.65 1.45 1.29 1.13 0.99 0.90 0.82 0.72 0.69 0.67 0.64 0.59 0.56 0.52 0.49 0.46 0.45 0.46 0.42 0.37 0.33 0.32 0.27 0.24 0.25 0.18 0.14 0.14 0.17 0.23 0.29 0.32 0.32 0.38 0.45 0.50 0.46 0.45 0.44 0.53 0.63 0.74
1.65 1.59 1.44 1.31 1.18 1.04 0.90 0.81 0.75 0.71 0.68 0.63 0.55 0.46 0.42 0.41 0.39 0.42 0.44 0.40 0.38 0.36 0.32 0.28 0.26 0.28 0.23 0.17 0.14 0.16 0.23 0.26 0.25 0.23 0.27 0.33 0.37 0.37 0.43 0.52 0.66 0.70 0.82
1.16 1.15 1.10 1.06 0.99 0.88 0.77 0.74 0.73 0.66 0.60 0.53 0.43 0.35 0.33 0.35 0.36 0.36 0.37 0.36 0.36 0.33 0.29 0.28 0.29 0.27 0.25 0.17 0.14 0.15 0.18 0.24 0.23 0.26 0.30 0.29 0.26 0.30 0.39 0.53 0.71 0.83 0.89
0.96 0.91 0.86 0.87 0.82 0.72 0.69 0.69 0.67 0.61 0.47 0.39 0.35 0.32 0.31 0.31 0.30 0.31 0.34 0.34 0.32 0.33 0.31 0.32 0.32 0.28 0.21 0.15 0.10 0.10 0.14 0.18 0.22 0.29 0.35 0.34 0.29 0.31 0.36 0.49 0.67 0.83 0.87
1.00 0.91 0.82 0.75 0.64 0.60 0.66 0.70 0.63 0.46 0.36 0.35 0.36 0.34 0.28 0.23 0.22 0.30 0.35 0.33 0.34 0.36 0.37 0.36 0.32 0.26 0.20 0.14 0.10 0.08 0.08 0.10 0.24 0.38 0.36 0.35 0.35 0.34 0.41 0.54 0.71 0.84 1.00
0.93 0.87 0.75 0.65 0.53 0.47 0.52 0.56 0.45 0.31 0.29 0.34 0.39 0.37 0.28 0.27 0.26 0.29 0.32 0.32 0.33 0.31 0.29 0.30 0.28 0.26 0.23 0.18 0.11 0.09 0.09 0.12 0.21 0.35 0.39 0.38 0.36 0.46 0.66 0.78 0.88 1.01 1.19
0.72 0.64 0.60 0.53 0.43 0.35 0.33 0.31 0.24 0.24 0.28 0.33 0.34 0.32 0.31 0.32 0.32 0.29 0.22 0.23 0.25 0.23 0.22 0.25 0.27 0.28 0.28 0.20 0.15 0.15 0.17 0.19 0.23 0.33 0.46 0.52 0.56 0.71 0.92 1.06 1.16 1.23 1.25
0.50 0.47 0.48 0.43 0.31 0.25 0.22 0.17 0.16 0.20 0.27 0.29 0.29 0.28 0.26 0.27 0.32 0.28 0.17 0.13 0.13 0.11 0.14 0.18 0.20 0.26 0.26 0.16 0.15 0.16 0.19 0.22 0.25 0.31 0.46 0.62 0.68 0.81 0.96 1.11 1.18 1.21 1.18
0.38 0.38 0.36 0.32 0.25 0.20 0.17 0.13 0.11 0.16 0.26 0.28 0.24 0.17 0.14 0.16 0.19 0.22 0.20 0.10 0.05 0.04 0.04 0.06 0.09 0.12 0.14 0.12 0.11 0.14 0.19 0.23 0.29 0.36 0.56 0.67 0.69 0.77 0.87 0.97 1.06 1.04 0.99